Regional Weather Roundup
Issued by NWS Boston, MA

Home | Current Version | Previous Version | Text Only | Print | Product List | Glossary On
Versions: 1 2 3 4 5 6 7 8 9 10 11 12 13 14 15 16 17 18 19 20 21 22 23 24 25 26 27 28 29 30 31 32 33 34 35 36 37 38 39 40 41 42 43 44 45 46 47 48 49 50
000
ASUS41 KBOX 261810
RWRBOX

REGIONAL WEATHER ROUNDUP
NATIONAL WEATHER SERVICE TAUNTON MA
100 PM EST MON JAN 26 2015

NOTE:  "FAIR" INDICATES FEW OR NO CLOUDS BELOW 12,000 FEET WITH NO
SIGNIFICANT WEATHER AND/OR OBSTRUCTIONS TO VISIBILITY.  THE FOLLOWING
OBSERVATION LOCATIONS DO NOT REPORT PRESENT WEATHER...PROVINCETOWN...
SMITHFIELD...BLOCK ISLAND...KEENE...AND OXFORD.

MAZALL-261900-
EASTERN MASSACHUSETTS

CITY           SKY/WX    TMP DP  RH WIND       PRES   REMARKS
BOSTON         LGT SNOW  25  19  78 NE18      30.07F WCI  11
6HR MIN TEMP:  11; 6HR MAX TEMP:  25; 6HR PCP: TRACE;

BEVERLY        LGT SNOW  24  16  71 NE15G21   30.07F WCI  11
LAWRENCE       LGT SNOW  20  12  71 NE15      30.10F WCI   6
BEDFORD        CLOUDY    20  12  71 N14       30.05F WCI   7
BLUE HILL        N/A     21  17  84 NE13G20   29.99F WCI   9
NORWOOD        LGT SNOW  24  18  77 NE12      30.05F WCI  13
MARSHFIELD     MIX PCPN  32  25  74 E16G24    30.06F WCI  21
PLYMOUTH       FLURRIES  30  22  72 E13G23    30.02F WCI  20
TAUNTON        LGT SNOW  27  22  81 VRB3      30.02F
NEW BEDFORD    LGT SNOW  30  24  78 NE13      30.00F WCI  20
$$

MAZALL-261900-
CAPE COD AND THE ISLANDS

CITY           SKY/WX    TMP DP  RH WIND       PRES   REMARKS
FALMOUTH       LGT SNOW  30  25  80 E15G23    30.00F FOG     WCI  19
HYANNIS        LGT SNOW  30  25  81 NE10      29.99F VSB 1   WCI  21
CHATHAM        LGT SNOW  30  25  81 E15G23    30.02F WCI  19
PROVINCETOWN   CLOUDY    30  19  64 E16G22    30.06F WCI  19
NANTUCKET      LGT SNOW  33  28  81 NE17G25   29.98F WCI  22
MARTHAS VNYRD  LGT SNOW  30  27  88 NE18G24   29.99F FOG     WCI  18
$$

MAZALL-261900-
CENTRAL AND WESTERN MASSACHUSETTS

CITY           SKY/WX    TMP DP  RH WIND       PRES   REMARKS
WORCESTER      CLOUDY    15   7  70 NE9G18    29.97F WCI   3
6HR MIN TEMP:   7; 6HR MAX TEMP:  15;

FITCHBURG      CLOUDY    20   6  55 NE9       30.07F WCI   9
ORANGE         CLOUDY    22  11  62 NE10      30.02F WCI  11
SPRINGFIELD    CLOUDY    20   6  55 N10       30.01F WCI   8
WESTFIELD      CLOUDY    19   1  45 N12       30.02F WCI   7
NORTH ADAMS    CLOUDY    21  -3  35 E9        29.99F WCI  11
PITTSFIELD     CLOUDY    19   4  51 VRB7      29.92F WCI  10
$$

RIZALL-261900-
RHODE ISLAND

CITY           SKY/WX    TMP DP  RH WIND       PRES   REMARKS
PROVIDENCE     LGT SNOW  23  18  81 N14       30.02F FOG     WCI  11
6HR MIN TEMP:  15; 6HR MAX TEMP:  22; 6HR PCP:  0.01;

NEWPORT        LGT SNOW  23  19  85 N16       29.99F FOG     WCI  10
BLOCK ISLAND   CLOUDY    27  21  80 NE18G26   29.94F WCI  13
SMITHFIELD     CLOUDY    19  10  68 N9        30.00F WCI   9
WESTERLY       CLOUDY    24  18  77 NE12G20   29.98F WCI  13
$$

CTZALL-261900-
CONNECTICUT

CITY           SKY/WX    TMP DP  RH WIND       PRES   REMARKS
BRADLEY INTL   LGT SNOW  19   4  51 N15       30.01F WCI   5
6HR MIN TEMP:  14; 6HR MAX TEMP:  19; 6HR PCP: TRACE;

HARTFORD       LGT SNOW  17   8  67 N8        30.03F WCI   7
BRIDGEPORT     CLOUDY    21  15  78 NE17G26   29.94F WCI   7
DANBURY        LGT SNOW  18  10  71 NE12      29.94F WCI   5
GROTON         CLOUDY    25  19  78 NE20G25   29.97F WCI  11
NEW HAVEN      CLOUDY    20  15  81 N15       29.95F HAZE    WCI   6
CHESTER        FLURRIES  23  19  86 NE12G18   29.95F WCI  12
MERIDEN        LGT SNOW  17  10  74 N13G18    30.00F WCI   4
WILLIMANTIC    SNOW      22  15  75 NE12      30.01F VSB 1/2 WCI  10
OXFORD         LGT SNOW  16   5  62 NE12G18   29.92F VSB 1   WCI   3
$$

MEZ002-015-021-024-NHZ003-005-008-011-012-014-VTZ005-008-261900-
NORTHERN NEW ENGLAND

CITY           SKY/WX    TMP DP  RH WIND       PRES   REMARKS
PORTLAND ME    MOSUNNY   19   1  45 E8        30.17F WCI   9
6HR MIN TEMP:   5; 6HR MAX TEMP:  19;

BANGOR ME      PTSUNNY   11  -6  46 NE6       30.20F WCI   1
CONCORD NH     SUNNY     21  -6  30 E9        30.10F WCI  11
MANCHESTER NH  PTSUNNY   20   2  45 NE12G18   30.09F WCI   8
NASHUA NH      MOSUNNY   20   4  50 NE8       30.10F WCI  10
PORTSMOUTH NH  PTSUNNY   20   9  63 NE12      30.11F WCI   8
JAFFREY NH     CLOUDY    18   6  59 VRB3      30.00F
KEENE NH       MOSUNNY   19   0  42 CALM      30.05F
BURLINGTON VT  PTSUNNY   10  -2  58 NW8       30.13F WCI  -2
MT. WASHINGTON NOT AVBL
$$

NYZ052-076-261900-
EASTERN NEW YORK

CITY           SKY/WX    TMP DP  RH WIND       PRES   REMARKS
ALBANY         CLOUDY    16  -1  47 N7        30.06F WCI   6
6HR MIN TEMP:  10; 6HR MAX TEMP:  16;

NEW YORK CITY  LGT SNOW  23  18  81 NE18G25   29.90F WCI   9
6HR MIN TEMP:  22; 6HR MAX TEMP:  26; 6HR PCP: TRACE;

$$

ANZALL-261900-
MARINE OBSERVATIONS

STATION/POSITION TIME  TEMP    WIND        PRES    VSBY  WAVE
                       AIR SEA DIR/SP/G                  HT/PER
                 (UTC) (F)     (DEG/KT/KT) (MB)    (MI)  (FT/S)
BOSTON BUOY      1750   28 40   70/ 17/ 23 1018.1F         4/ 5
BUZZARDS BAY     1700           50/ 19/ 23 1016.8F
NANTUCKET SOUND  1750   31 37   70/ 21/ 25 1015.3F         3/ 5
MASS BAY-STELLWA 1704   26 41   40/ 16/ 21   N/A    1 3/4  4/ 4
ISLE OF SHOALS   1800   23      40/ 17/ 19 1018.8F
S OF BLOCK IS    1708      45                N/A           7/ 6
$$

......................KEY.........................
  SKY/WX - SKY CONDITION/PRESENT WEATHER
  TMP    - TEMPERATURE IN FAHRENHEIT
  DWPT   - DEWPOINT IN FAHRENHEIT
  RH     - RELATIVE HUMIDITY IN PERCENT
  WIND   - DIRECTION AND SPEED IN MPH
  PRES   - MEAN SEA LEVEL PRESSURE IN INCHES OF HG
  WCI    - WIND CHILL INDEX
  VSB    - VISIBILITY IN MILES
  HX     - HEAT INDEX
  TC     - TEMPERATURE IN CELSIUS
  VRB    - VARIABLE WIND DIRECTION
  N/A    - NOT AVAILABLE



USA.gov is the U.S. government's official web portal to all federal, state and local government web resources and services.